When you browse on this site, cookies collect data to enhance your experience and personalize the content and advertising you see.
Visit our Privacy Policy to learn more. By continuing to use the site, you agree to this use of cookies and data.
  • In Czech Republic
  • List of Countries
  • For 7 days
  • Water Temperature
  • Satellite Maps
  • Weather Map
  • Weather Widgets
  • user-avatar
    Login

    Hourly Weather Arcos de la Frontera

    Today, 20 January, Sunday

    Time Temperature Precipitation Wind Pressure Humidity
    00:00 +13°C° 0 mm 2 mps 753 mmHg 95%
    01:00 +13°C° 0.4 mm 2 mps 753 mmHg 95%
    02:00 +13°C° 0.4 mm 2 mps 752 mmHg 95%
    03:00 +12°C° 0.4 mm 2 mps 752 mmHg 95%
    04:00 +11°C° 0.4 mm 3 mps 752 mmHg 94%
    05:00 +12°C° 0.4 mm 3 mps 752 mmHg 94%
    06:00 +11°C° 0 mm 3 mps 752 mmHg 94%
    07:00 +11°C° 0 mm 4 mps 752 mmHg 92%
    08:00 +11°C° 0 mm 4 mps 752 mmHg 90%
    09:00 +10°C° 0 mm 5 mps 753 mmHg 88%
    10:00 +12°C° 0 mm 5 mps 753 mmHg 82%
    11:00 +13°C° 0 mm 5 mps 754 mmHg 76%
    12:00 +14°C° 0 mm 5 mps 754 mmHg 70%
    13:00 +14°C° 0 mm 5 mps 754 mmHg 67%
    14:00 +15°C° 0 mm 5 mps 754 mmHg 64%
    15:00 +15°C° 0 mm 4 mps 754 mmHg 61%
    16:00 +14°C° 0 mm 4 mps 754 mmHg 64%
    17:00 +13°C° 0 mm 3 mps 754 mmHg 67%
    18:00 +12°C° 0 mm 2 mps 755 mmHg 70%
    19:00 +12°C° 0 mm 2 mps 755 mmHg 71%
    20:00 +10°C° 0 mm 2 mps 756 mmHg 71%
    21:00 +10°C° 0 mm 1 mps 756 mmHg 72%
    22:00 +10°C° 0 mm 1 mps 756 mmHg 74%
    23:00 +9°C° 0 mm 1 mps 757 mmHg 75%

    Tomorrow, 21 January, Monday

    Time Temperature Precipitation Wind Pressure Humidity
    00:00 +9°C° 0 mm 1 mps 757 mmHg 76%
    01:00 +8°C° 0 mm 1 mps 757 mmHg 76%
    02:00 +8°C° 0 mm 1 mps 757 mmHg 77%
    03:00 +8°C° 0 mm 1 mps 757 mmHg 77%
    04:00 +8°C° 0 mm 1 mps 757 mmHg 78%
    05:00 +7°C° 0 mm 1 mps 757 mmHg 78%
    06:00 +7°C° 0 mm 1 mps 757 mmHg 78%
    07:00 +7°C° 0 mm 2 mps 757 mmHg 75%
    08:00 +7°C° 0 mm 2 mps 758 mmHg 73%
    09:00 +8°C° 0 mm 2 mps 758 mmHg 70%
    10:00 +10°C° 0 mm 2 mps 758 mmHg 62%
    11:00 +12°C° 0 mm 3 mps 758 mmHg 55%
    12:00 +14°C° 0 mm 3 mps 759 mmHg 47%
    13:00 +14°C° 0 mm 3 mps 758 mmHg 46%
    14:00 +14°C° 0 mm 3 mps 758 mmHg 44%
    15:00 +15°C° 0 mm 4 mps 758 mmHg 43%
    16:00 +13°C° 0 mm 3 mps 758 mmHg 48%
    17:00 +12°C° 0 mm 2 mps 758 mmHg 54%
    18:00 +9°C° 0 mm 2 mps 758 mmHg 60%
    19:00 +9°C° 0 mm 2 mps 759 mmHg 61%
    20:00 +9°C° 0 mm 1 mps 759 mmHg 62%
    21:00 +9°C° 0 mm 1 mps 759 mmHg 63%
    22:00 +9°C° 0 mm 1 mps 759 mmHg 64%
    23:00 +8°C° 0 mm 1 mps 760 mmHg 64%

    Day after tomorrow, 22 January, Tuesday

    Time Temperature Precipitation Wind Pressure Humidity
    00:00 +8°C° 0 mm 1 mps 760 mmHg 65%
    01:00 +8°C° 0 mm 1 mps 760 mmHg 66%
    02:00 +7°C° 0 mm 1 mps 760 mmHg 66%
    03:00 +7°C° 0 mm 1 mps 759 mmHg 67%
    04:00 +7°C° 0 mm 1 mps 759 mmHg 69%
    05:00 +6°C° 0 mm 0 mps 759 mmHg 70%
    06:00 +5°C° 0 mm 0 mps 759 mmHg 71%
    07:00 +7°C° 0 mm 1 mps 759 mmHg 70%
    08:00 +8°C° 0 mm 1 mps 760 mmHg 69%
    09:00 +9°C° 0 mm 1 mps 760 mmHg 67%
    10:00 +9°C° 0 mm 2 mps 760 mmHg 64%
    11:00 +11°C° 0 mm 3 mps 760 mmHg 60%
    12:00 +12°C° 0 mm 4 mps 759 mmHg 57%
    13:00 +12°C° 0 mm 4 mps 759 mmHg 59%
    14:00 +13°C° 0 mm 4 mps 758 mmHg 62%
    15:00 +13°C° 0 mm 5 mps 757 mmHg 64%
    16:00 +12°C° 0 mm 4 mps 757 mmHg 69%
    17:00 +12°C° 0 mm 4 mps 757 mmHg 74%
    18:00 +11°C° 0 mm 3 mps 757 mmHg 78%
    19:00 +11°C° 0.1 mm 3 mps 757 mmHg 82%
    20:00 +11°C° 0.1 mm 3 mps 757 mmHg 85%
    21:00 +10°C° 0.1 mm 3 mps 757 mmHg 89%
    22:00 +9°C° 0 mm 3 mps 757 mmHg 89%
    23:00 +8°C° 0 mm 2 mps 757 mmHg 89%

    23 January, Wednesday

    Time Temperature Precipitation Wind Pressure Humidity
    00:00 +7°C° 0 mm 2 mps 757 mmHg 89%
    01:00 +8°C° 0 mm 1 mps 757 mmHg 88%
    02:00 +7°C° 0 mm 1 mps 757 mmHg 87%
    03:00 +7°C° 0 mm 1 mps 757 mmHg 87%
    04:00 +7°C° 0 mm 1 mps 757 mmHg 86%
    05:00 +6°C° 0 mm 1 mps 757 mmHg 85%
    06:00 +6°C° 0 mm 1 mps 757 mmHg 85%
    07:00 +7°C° 0 mm 1 mps 758 mmHg 82%
    08:00 +8°C° 0 mm 1 mps 758 mmHg 80%
    09:00 +8°C° 0 mm 1 mps 758 mmHg 77%
    10:00 +9°C° 0 mm 2 mps 758 mmHg 70%
    11:00 +11°C° 0 mm 3 mps 758 mmHg 64%
    12:00 +12°C° 0 mm 4 mps 758 mmHg 58%
    13:00 +13°C° 0 mm 4 mps 757 mmHg 56%
    14:00 +14°C° 0 mm 5 mps 757 mmHg 55%
    15:00 +15°C° 0 mm 5 mps 756 mmHg 54%
    16:00 +14°C° 0 mm 5 mps 756 mmHg 58%
    17:00 +13°C° 0 mm 4 mps 756 mmHg 63%
    18:00 +12°C° 0 mm 4 mps 756 mmHg 67%
    19:00 +11°C° 0 mm 3 mps 756 mmHg 71%
    20:00 +10°C° 0 mm 3 mps 756 mmHg 76%
    21:00 +10°C° 0 mm 3 mps 757 mmHg 80%
    22:00 +9°C° 0 mm 3 mps 757 mmHg 83%
    23:00 +9°C° 0 mm 3 mps 756 mmHg 85%

    24 January, Thursday

    Time Temperature Precipitation Wind Pressure Humidity
    00:00 +9°C° 0 mm 3 mps 756 mmHg 88%
    01:00 +9°C° 0 mm 2 mps 756 mmHg 89%
    02:00 +9°C° 0 mm 2 mps 755 mmHg 91%
    03:00 +8°C° 0 mm 2 mps 755 mmHg 93%
    04:00 +9°C° 0 mm 1 mps 755 mmHg 93%
    05:00 +9°C° 0 mm 1 mps 755 mmHg 93%
    06:00 +9°C° 0 mm 1 mps 754 mmHg 93%
    07:00 +10°C° 0 mm 1 mps 755 mmHg 90%
    08:00 +10°C° 0 mm 1 mps 755 mmHg 88%
    09:00 +10°C° 0 mm 2 mps 755 mmHg 85%
    10:00 +13°C° 0 mm 2 mps 755 mmHg 77%
    11:00 +14°C° 0 mm 3 mps 755 mmHg 70%
    12:00 +17°C° 0 mm 4 mps 755 mmHg 62%
    13:00 +17°C° 0 mm 4 mps 755 mmHg 61%
    14:00 +18°C° 0 mm 4 mps 754 mmHg 60%
    15:00 +18°C° 0 mm 4 mps 754 mmHg 59%
    16:00 +16°C° 0 mm 3 mps 754 mmHg 65%
    17:00 +14°C° 0 mm 3 mps 754 mmHg 72%
    18:00 +13°C° 0 mm 2 mps 754 mmHg 79%
    19:00 +13°C° 0 mm 2 mps 754 mmHg 79%
    20:00 +12°C° 0 mm 2 mps 755 mmHg 80%
    21:00 +11°C° 0 mm 1 mps 755 mmHg 81%
    22:00 +11°C° 0 mm 1 mps 755 mmHg 82%
    23:00 +11°C° 0 mm 1 mps 755 mmHg 83%

    25 January, Friday

    Time Temperature Precipitation Wind Pressure Humidity
    00:00 +11°C° 0 mm 1 mps 756 mmHg 84%
    01:00 +11°C° 0 mm 1 mps 755 mmHg 85%
    02:00 +11°C° 0 mm 1 mps 755 mmHg 85%
    03:00 +10°C° 0 mm 1 mps 755 mmHg 86%
    04:00 +9°C° 0 mm 2 mps 755 mmHg 86%
    05:00 +9°C° 0 mm 2 mps 755 mmHg 86%
    06:00 +9°C° 0 mm 2 mps 755 mmHg 85%
    07:00 +10°C° 0 mm 2 mps 755 mmHg 82%
    08:00 +12°C° 0 mm 2 mps 756 mmHg 78%
    09:00 +13°C° 0 mm 2 mps 756 mmHg 75%
    10:00 +14°C° 0 mm 3 mps 756 mmHg 65%
    11:00 +17°C° 0 mm 4 mps 756 mmHg 56%
    12:00 +20°C° 0 mm 5 mps 757 mmHg 46%
    13:00 +20°C° 0 mm 5 mps 756 mmHg 45%
    14:00 +20°C° 0 mm 5 mps 756 mmHg 44%
    15:00 +20°C° 0 mm 5 mps 756 mmHg 44%
    16:00 +18°C° 0 mm 4 mps 756 mmHg 50%
    17:00 +16°C° 0 mm 3 mps 756 mmHg 56%
    18:00 +13°C° 0 mm 3 mps 756 mmHg 62%
    19:00 +14°C° 0 mm 2 mps 756 mmHg 62%
    20:00 +13°C° 0 mm 2 mps 757 mmHg 62%
    21:00 +13°C° 0 mm 2 mps 757 mmHg 61%
    22:00 +12°C° 0 mm 2 mps 757 mmHg 63%
    23:00 +12°C° 0 mm 2 mps 758 mmHg 64%
    Show more